Starlink 3515

operational
NORAD ID: 51738 Int'l Des: 2022-016 Owner: SPXS Country: US Constellation: starlink
LEOCIRCULAR

Starlink 3515について

説明を読み込み中...

リアルタイム位置

3D地球を読み込み中...

次回通過

高度履歴

Altitude vs Time

uPlot chart will show altitude changes over time

軌道要素

1 51738U 22016AA 25350.96979597 -.00000442 00000-0 -96885-5 0 9994
2 51738 53.2170 330.4646 0001452 87.4845 272.6313 15.08841767211070
Epoch: Dec 16, 2025 • Age: 12 hours

現在のステータス

高度 544.0 km
速度 7.59 km/s
衛星直下点 -14.57°S, 96.14°W
打ち上げ日 Feb 21, 2022
運用期間 3.8 years
タイプ internet

技術仕様

分類 Payload
質量 297.00 kg
乾燥質量 275.00 kg
総質量 297.00 kg
長さ 0.20 m
直径 2.80 m
スパン 9.00 m
形状 Box + pan
製造者 SPXS
バスタイプ Starlink
フェーズステータス In Orbit
所有者/国 SPXS/US

大規模コンステレーション

Loading constellations...